TimeCST,TemperatureF,Dew PointF,Humidity,Sea Level PressureIn,VisibilityMPH,Wind Direction,Wind SpeedMPH,Gust SpeedMPH,PrecipitationIn,Events,Conditions,WindDirDegrees,DateUTC
12:53 AM,46.0,34.0,63,29.83,10.0,SW,3.5,-,N/A,,Clear,220,2014-01-27 06:53:00
1:53 AM,41.0,34.0,76,29.85,10.0,Calm,Calm,-,N/A,,Clear,0,2014-01-27 07:53:00
2:53 AM,39.9,33.1,77,29.90,10.0,NNW,10.4,17.3,N/A,,Clear,330,2014-01-27 08:53:00
3:53 AM,39.0,28.0,65,29.97,10.0,NNE,23.0,32.2,N/A,,Clear,20,2014-01-27 09:53:00
4:53 AM,35.1,24.1,64,30.03,10.0,NNE,25.3,32.2,N/A,,Clear,30,2014-01-27 10:53:00
5:53 AM,30.9,21.0,67,30.10,10.0,NNE,20.7,41.4,N/A,,Clear,30,2014-01-27 11:53:00
6:53 AM,30.0,16.0,56,30.17,10.0,NNE,18.4,32.2,N/A,,Clear,30,2014-01-27 12:53:00
7:53 AM,28.9,10.9,47,30.22,10.0,NNE,24.2,32.2,N/A,,Clear,30,2014-01-27 13:53:00
8:53 AM,28.9,5.0,36,30.26,10.0,NNE,20.7,32.2,N/A,,Clear,30,2014-01-27 14:53:00
9:53 AM,30.0,1.9,30,30.30,10.0,NNE,23.0,34.5,N/A,,Clear,20,2014-01-27 15:53:00
10:53 AM,30.0,-0.9,27,30.32,10.0,NNE,26.5,35.7,N/A,,Clear,20,2014-01-27 16:53:00
11:53 AM,28.9,-0.0,29,30.30,10.0,NNE,19.6,31.1,N/A,,Clear,20,2014-01-27 17:53:00
12:53 PM,27.0,-0.0,31,30.31,10.0,NNE,18.4,28.8,N/A,,Clear,20,2014-01-27 18:53:00
1:53 PM,27.0,-0.0,31,30.30,10.0,North,18.4,28.8,N/A,,Clear,10,2014-01-27 19:53:00
2:53 PM,26.1,-0.0,32,30.32,10.0,NNE,13.8,28.8,N/A,,Clear,30,2014-01-27 20:53:00
3:53 PM,24.1,-0.9,34,30.33,10.0,NNE,18.4,26.5,N/A,,Clear,20,2014-01-27 21:53:00
4:53 PM,23.0,-0.0,37,30.35,10.0,NNE,19.6,29.9,N/A,,Clear,30,2014-01-27 22:53:00
5:53 PM,21.9,-0.0,38,30.38,10.0,NNE,13.8,-,N/A,,Overcast,30,2014-01-27 23:53:00
6:53 PM,21.9,-0.9,37,30.40,10.0,NE,17.3,24.2,N/A,,Overcast,40,2014-01-28 00:53:00
7:53 PM,21.9,-0.9,37,30.41,10.0,NNE,13.8,23.0,N/A,,Overcast,30,2014-01-28 01:53:00
8:53 PM,21.0,-2.0,36,30.40,10.0,NNE,16.1,23.0,N/A,,Scattered Clouds,30,2014-01-28 02:53:00
9:53 PM,21.9,-2.0,35,30.41,10.0,NNE,13.8,21.9,N/A,,Overcast,30,2014-01-28 03:53:00
10:53 PM,21.0,-0.9,38,30.41,10.0,NE,15.0,-,N/A,,Overcast,40,2014-01-28 04:53:00
11:53 PM,21.0,-2.0,36,30.42,10.0,NNE,13.8,-,N/A,,Overcast,30,2014-01-28 05:53:00